Time,TemperatureF,DewpointF,PressureIn,WindDirection,WindDirectionDegrees,WindSpeedMPH,WindSpeedGustMPH,Humidity,HourlyPrecipIn,Conditions,Clouds,dailyrainin,SoftwareType,DateUTC
2014-02-27 00:01:00,15.8,5.5,28.80,ESE,112,0.0,-999.0,63,-99.99,,,0.00,Acu-Link.com,2014-02-27 05:01:00,
2014-02-27 00:16:00,15.4,6.4,28.80,North,0,0.0,-999.0,67,-99.99,,,0.00,Acu-Link.com,2014-02-27 05:16:00,
2014-02-27 00:31:00,15.1,5.8,28.80,SSE,157,0.0,-999.0,66,-99.99,,,0.00,Acu-Link.com,2014-02-27 05:31:00,
2014-02-27 00:47:00,14.2,5.9,28.80,NNE,22,0.0,-999.0,69,-99.99,,,0.00,Acu-Link.com,2014-02-27 05:47:00,
2014-02-27 01:02:00,14.5,6.8,28.78,NE,45,3.7,-999.0,71,-99.99,,,0.00,Acu-Link.com,2014-02-27 06:02:00,
2014-02-27 01:17:00,14.5,6.8,28.78,NE,45,2.2,-999.0,71,-99.99,,,0.00,Acu-Link.com,2014-02-27 06:17:00,
2014-02-27 01:33:00,16.0,7.7,28.78,NE,45,2.7,-999.0,69,-99.99,,,0.00,Acu-Link.com,2014-02-27 06:33:00,
2014-02-27 01:48:00,16.2,7.5,28.77,NNE,22,0.0,-999.0,68,-99.99,,,0.00,Acu-Link.com,2014-02-27 06:48:00,
2014-02-27 02:03:00,16.0,7.3,28.78,NNW,337,2.2,-999.0,68,-99.99,,,0.00,Acu-Link.com,2014-02-27 07:03:00,
2014-02-27 02:19:00,15.6,7.6,28.78,SSW,202,0.0,-999.0,70,-99.99,,,0.00,Acu-Link.com,2014-02-27 07:19:00,
2014-02-27 02:34:00,14.9,6.9,28.77,West,270,0.0,-999.0,70,-99.99,,,0.00,Acu-Link.com,2014-02-27 07:34:00,
2014-02-27 02:49:00,14.9,6.9,28.77,SW,225,0.0,-999.0,70,-99.99,,,0.00,Acu-Link.com,2014-02-27 07:49:00,
2014-02-27 03:05:00,13.8,6.5,28.76,West,270,0.0,-999.0,72,-99.99,,,0.00,Acu-Link.com,2014-02-27 08:05:00,
2014-02-27 03:20:00,13.5,6.2,28.75,West,270,0.0,-999.0,72,-99.99,,,0.00,Acu-Link.com,2014-02-27 08:20:00,
2014-02-27 03:35:00,13.3,6.3,28.75,SW,225,0.0,-999.0,73,-99.99,,,0.00,Acu-Link.com,2014-02-27 08:35:00,
2014-02-27 03:51:00,12.9,6.2,28.74,SW,225,0.0,-999.0,74,-99.99,,,0.00,Acu-Link.com,2014-02-27 08:51:00,
2014-02-27 04:06:00,12.6,6.5,28.73,SW,225,0.0,-999.0,76,-99.99,,,0.00,Acu-Link.com,2014-02-27 09:06:00,
2014-02-27 04:21:00,12.0,5.9,28.73,SSW,202,0.0,-999.0,76,-99.99,,,0.00,Acu-Link.com,2014-02-27 09:21:00,
2014-02-27 04:36:00,12.2,6.4,28.72,WSW,247,0.0,-999.0,77,-99.99,,,0.00,Acu-Link.com,2014-02-27 09:36:00,
2014-02-27 04:52:00,12.2,6.4,28.71,SW,225,0.0,-999.0,77,-99.99,,,0.00,Acu-Link.com,2014-02-27 09:52:00,
2014-02-27 05:07:00,11.7,6.2,28.71,West,270,0.0,-999.0,78,-99.99,,,0.00,Acu-Link.com,2014-02-27 10:07:00,
2014-02-27 05:22:00,11.5,6.0,28.70,SW,225,0.0,-999.0,78,-99.99,,,0.00,Acu-Link.com,2014-02-27 10:22:00,
2014-02-27 05:37:00,11.5,6.0,28.70,WSW,247,0.0,-999.0,78,-99.99,,,0.00,Acu-Link.com,2014-02-27 10:37:00,
2014-02-27 05:53:00,11.7,6.5,28.69,WSW,247,0.0,-999.0,79,-99.99,,,0.00,Acu-Link.com,2014-02-27 10:53:00,
2014-02-27 06:08:00,11.7,6.7,28.69,SW,225,0.0,-999.0,80,-99.99,,,0.00,Acu-Link.com,2014-02-27 11:08:00,
2014-02-27 06:23:00,12.0,7.0,28.68,SW,225,0.0,-999.0,80,-99.99,,,0.00,Acu-Link.com,2014-02-27 11:23:00,
2014-02-27 06:39:00,12.0,7.0,28.68,SW,225,0.0,-999.0,80,-99.99,,,0.00,Acu-Link.com,2014-02-27 11:39:00,
2014-02-27 06:54:00,12.2,7.5,28.68,SW,225,0.0,-999.0,81,-99.99,,,0.00,Acu-Link.com,2014-02-27 11:54:00,
2014-02-27 07:09:00,13.5,9.0,28.67,WSW,247,0.0,-999.0,82,-99.99,,,0.00,Acu-Link.com,2014-02-27 12:09:00,
2014-02-27 07:25:00,15.8,11.3,28.68,SSW,202,0.0,-999.0,82,-99.99,,,0.00,Acu-Link.com,2014-02-27 12:25:00,
2014-02-27 07:40:00,18.0,12.9,28.67,SSW,202,0.0,-999.0,80,-99.99,,,0.00,Acu-Link.com,2014-02-27 12:40:00,
2014-02-27 07:55:00,21.0,14.3,28.67,SW,225,0.0,-999.0,75,-99.99,,,0.00,Acu-Link.com,2014-02-27 12:55:00,
2014-02-27 08:11:00,23.7,15.4,28.67,SW,225,0.0,-999.0,70,-99.99,,,0.00,Acu-Link.com,2014-02-27 13:11:00,
2014-02-27 08:26:00,26.2,16.1,28.66,WSW,247,2.7,-999.0,65,-99.99,,,0.00,Acu-Link.com,2014-02-27 13:26:00,
2014-02-27 08:41:00,28.6,15.7,28.65,SSW,202,3.7,-999.0,58,-99.99,,,0.00,Acu-Link.com,2014-02-27 13:41:00,
2014-02-27 08:56:00,30.6,15.5,28.64,West,270,5.3,-999.0,53,-99.99,,,0.00,Acu-Link.com,2014-02-27 13:56:00,
2014-02-27 09:11:00,30.9,15.4,28.63,SW,225,5.8,-999.0,52,-99.99,,,0.00,Acu-Link.com,2014-02-27 14:11:00,
2014-02-27 09:27:00,31.6,15.6,28.63,South,180,5.8,-999.0,51,-99.99,,,0.00,Acu-Link.com,2014-02-27 14:27:00,
2014-02-27 09:42:00,31.6,16.0,28.63,West,270,4.2,-999.0,52,-99.99,,,0.00,Acu-Link.com,2014-02-27 14:42:00,
2014-02-27 09:57:00,32.7,16.6,28.63,SSW,202,4.2,-999.0,51,-99.99,,,0.00,Acu-Link.com,2014-02-27 14:57:00,
2014-02-27 10:12:00,34.7,18.4,28.61,WSW,247,4.2,-999.0,51,-99.99,,,0.00,Acu-Link.com,2014-02-27 15:12:00,
2014-02-27 10:27:00,34.9,19.1,28.60,SSE,157,6.3,-999.0,52,-99.99,,,0.00,Acu-Link.com,2014-02-27 15:27:00,
2014-02-27 10:43:00,34.3,20.3,28.60,SW,225,5.8,-999.0,56,-99.99,,,0.00,Acu-Link.com,2014-02-27 15:43:00,
2014-02-27 10:58:00,36.0,22.3,28.59,SSW,202,6.3,-999.0,57,-99.99,,,0.00,Acu-Link.com,2014-02-27 15:58:00,
2014-02-27 11:13:00,35.1,21.8,28.59,West,270,3.7,-999.0,58,-99.99,,,0.00,Acu-Link.com,2014-02-27 16:13:00,
2014-02-27 11:28:00,35.6,22.3,28.58,SSW,202,6.3,-999.0,58,-99.99,,,0.00,Acu-Link.com,2014-02-27 16:28:00,
2014-02-27 11:43:00,36.9,21.8,28.57,SW,225,6.3,-999.0,54,-99.99,,,0.00,Acu-Link.com,2014-02-27 16:43:00,
2014-02-27 11:58:00,37.8,21.3,28.57,West,270,6.3,-999.0,51,-99.99,,,0.00,Acu-Link.com,2014-02-27 16:58:00,
2014-02-27 12:13:00,39.0,21.5,28.56,West,270,4.2,-999.0,49,-99.99,,,0.00,Acu-Link.com,2014-02-27 17:13:00,
2014-02-27 12:28:00,39.0,21.0,28.54,WSW,247,8.3,-999.0,48,-99.99,,,0.00,Acu-Link.com,2014-02-27 17:28:00,
2014-02-27 12:43:00,39.2,21.7,28.54,West,270,2.7,-999.0,49,-99.99,,,0.00,Acu-Link.com,2014-02-27 17:43:00,
2014-02-27 12:58:00,38.3,19.9,28.54,West,270,5.3,-999.0,47,-99.99,,,0.00,Acu-Link.com,2014-02-27 17:58:00,
2014-02-27 13:14:00,38.8,17.7,28.53,West,270,9.4,-999.0,42,-99.99,,,0.00,Acu-Link.com,2014-02-27 18:14:00,
2014-02-27 13:29:00,37.9,15.8,28.54,ESE,112,4.2,-999.0,40,-99.99,,,0.00,Acu-Link.com,2014-02-27 18:29:00,
2014-02-27 13:44:00,39.6,18.4,28.54,West,270,7.3,-999.0,42,-99.99,,,0.00,Acu-Link.com,2014-02-27 18:44:00,
2014-02-27 13:59:00,39.9,18.1,28.55,SW,225,1.7,-999.0,41,-99.99,,,0.00,Acu-Link.com,2014-02-27 18:59:00,
2014-02-27 14:14:00,40.1,16.6,28.56,WSW,247,7.8,-999.0,38,-99.99,,,0.00,Acu-Link.com,2014-02-27 19:14:00,
2014-02-27 14:29:00,37.6,19.2,28.57,NNE,22,5.8,-999.0,47,-99.99,,,0.00,Acu-Link.com,2014-02-27 19:29:00,
2014-02-27 14:44:00,37.8,16.2,28.58,West,270,15.0,-999.0,41,-99.99,,,0.00,Acu-Link.com,2014-02-27 19:44:00,
2014-02-27 14:59:00,37.4,12.3,28.59,NNE,22,6.3,-999.0,35,-99.99,,,0.00,Acu-Link.com,2014-02-27 19:59:00,
2014-02-27 15:14:00,37.9,11.4,28.60,West,270,7.3,-999.0,33,-99.99,,,0.00,Acu-Link.com,2014-02-27 20:14:00,
2014-02-27 15:30:00,37.9,9.3,28.60,NNW,337,7.8,-999.0,30,-99.99,,,0.00,Acu-Link.com,2014-02-27 20:30:00,
2014-02-27 15:45:00,35.8,8.2,28.61,West,270,6.3,-999.0,31,-99.99,,,0.00,Acu-Link.com,2014-02-27 20:45:00,
2014-02-27 16:00:00,35.4,8.5,28.61,NE,45,4.2,-999.0,32,-99.99,,,0.00,Acu-Link.com,2014-02-27 21:00:00,
2014-02-27 16:15:00,35.1,8.9,28.62,ENE,67,5.8,-999.0,33,-99.99,,,0.00,Acu-Link.com,2014-02-27 21:15:00,
2014-02-27 16:30:00,34.0,8.0,28.64,West,270,6.8,-999.0,33,-99.99,,,0.00,Acu-Link.com,2014-02-27 21:30:00,
2014-02-27 16:45:00,33.6,6.9,28.65,WNW,292,2.7,-999.0,32,-99.99,,,0.00,Acu-Link.com,2014-02-27 21:45:00,
2014-02-27 17:00:00,34.0,7.3,28.66,NNE,22,7.3,-999.0,32,-99.99,,,0.00,Acu-Link.com,2014-02-27 22:00:00,
2014-02-27 17:15:00,32.5,6.6,28.68,NNW,337,5.3,-999.0,33,-99.99,,,0.00,Acu-Link.com,2014-02-27 22:15:00,
2014-02-27 17:30:00,31.3,6.9,28.69,NNE,22,1.7,-999.0,35,-99.99,,,0.00,Acu-Link.com,2014-02-27 22:30:00,
2014-02-27 17:46:00,30.6,6.2,28.70,NW,315,3.7,-999.0,35,-99.99,,,0.00,Acu-Link.com,2014-02-27 22:46:00,
2014-02-27 18:01:00,30.0,5.7,28.71,West,270,4.2,-999.0,35,-99.99,,,0.00,Acu-Link.com,2014-02-27 23:01:00,
2014-02-27 18:16:00,29.7,5.4,28.72,NNW,337,9.4,-999.0,35,-99.99,,,0.00,Acu-Link.com,2014-02-27 23:16:00,
2014-02-27 18:32:00,29.5,5.9,28.73,NNW,337,7.3,-999.0,36,-99.99,,,0.00,Acu-Link.com,2014-02-27 23:32:00,
2014-02-27 18:47:00,29.3,5.7,28.75,North,0,4.7,-999.0,36,-99.99,,,0.00,Acu-Link.com,2014-02-27 23:47:00,
2014-02-27 19:02:00,28.9,5.9,28.77,NW,315,4.2,-999.0,37,-99.99,,,0.00,Acu-Link.com,2014-02-28 00:02:00,
2014-02-27 19:19:00,28.8,6.4,28.78,NNW,337,3.2,-999.0,38,-99.99,,,0.00,Acu-Link.com,2014-02-28 00:19:00,
2014-02-27 19:34:00,28.8,7.0,28.79,NNE,22,4.7,-999.0,39,-99.99,,,0.00,Acu-Link.com,2014-02-28 00:34:00,
2014-02-27 19:49:00,28.6,7.9,28.81,NW,315,3.7,-999.0,41,-99.99,,,0.00,Acu-Link.com,2014-02-28 00:49:00,
2014-02-27 20:04:00,27.9,10.3,28.82,NNW,337,6.3,-999.0,47,-99.99,,,0.00,Acu-Link.com,2014-02-28 01:04:00,
2014-02-27 20:20:00,27.3,10.2,28.82,West,270,3.7,-999.0,48,-99.99,,,0.00,Acu-Link.com,2014-02-28 01:20:00,
2014-02-27 20:35:00,26.4,12.9,28.84,NNE,22,6.3,-999.0,56,-99.99,,,0.00,Acu-Link.com,2014-02-28 01:35:00,
2014-02-27 20:50:00,25.7,13.0,28.86,NE,45,6.8,-999.0,58,-99.99,,,0.00,Acu-Link.com,2014-02-28 01:50:00,
2014-02-27 21:05:00,25.3,11.0,28.87,NNE,22,4.2,-999.0,54,-99.99,,,0.00,Acu-Link.com,2014-02-28 02:05:00,
2014-02-27 21:20:00,24.8,8.8,28.88,NE,45,11.4,-999.0,50,-99.99,,,0.00,Acu-Link.com,2014-02-28 02:20:00,
2014-02-27 21:35:00,24.3,5.6,28.89,NNE,22,3.7,-999.0,44,-99.99,,,0.00,Acu-Link.com,2014-02-28 02:35:00,
2014-02-27 21:50:00,23.5,5.8,28.89,NE,45,5.3,-999.0,46,-99.99,,,0.00,Acu-Link.com,2014-02-28 02:50:00,
2014-02-27 22:05:00,23.0,4.4,28.92,West,270,4.2,-999.0,44,-99.99,,,0.00,Acu-Link.com,2014-02-28 03:05:00,
2014-02-27 22:20:00,22.5,0.2,28.92,ESE,112,5.3,-999.0,37,-99.99,,,0.00,Acu-Link.com,2014-02-28 03:20:00,
2014-02-27 22:36:00,21.7,0.1,28.94,North,0,3.7,-999.0,38,-99.99,,,0.00,Acu-Link.com,2014-02-28 03:36:00,
2014-02-27 22:51:00,21.2,-0.4,28.95,NNE,22,4.7,-999.0,38,-99.99,,,0.00,Acu-Link.com,2014-02-28 03:51:00,
2014-02-27 23:06:00,20.3,-0.7,28.96,NNE,22,7.8,-999.0,39,-99.99,,,0.00,Acu-Link.com,2014-02-28 04:06:00,
2014-02-27 23:21:00,19.4,-3.1,28.98,North,0,7.3,-999.0,36,-99.99,,,0.00,Acu-Link.com,2014-02-28 04:21:00,
2014-02-27 23:36:00,18.9,-3.0,29.00,NE,45,11.4,-999.0,37,-99.99,,,0.00,Acu-Link.com,2014-02-28 04:36:00,
2014-02-27 23:51:00,18.1,-6.1,29.01,NE,45,10.4,-999.0,33,-99.99,,,0.00,Acu-Link.com,2014-02-28 04:51:00,